Tacoma Narrows, WA
on Friday, January 25, 2013

Friday
Previous Day Next Day
Daily Summary
 ActualAverageRecord
Temperature
Mean Temperature °F °F  
Max Temperature 51°F 45°F 57°F (2003)
Min Temperature 39°F 37°F 26°F (2008)
Degree Days
Heating Degree Days 20    
Moisture
Dew Point 41°F   
Average Humidity 82    
Maximum Humidity 93    
Minimum Humidity 71    
Precipitation
Precipitation 0.03 in in in ()
Wind
Wind Speed 4 mph   
Max Wind Speed 14 mph   
Max Gust Speed 18 mph   
Visibility 10 miles   
Events Rain   
Averages and records for this station are not official NWS values.
Key: T is trace of precipitation, MM is missing value
Source: NWS Daily Summary
Seasonal Weather Averages
Time(PST)TemperatureDew PointHumidity Pressure Visibility Wind DirectionWind SpeedGust SpeedPrecipitationEvents Conditions
12:19 AM 42.8°F 39.2°F 87% 30.06 in 8.0 miles Calm Calm - 0.00 in Rain Light Rain
12:53 AM 42.1°F 39.9°F 92% 30.06 in 9.0 miles Calm Calm - 0.01 in   Overcast
1:53 AM 44.1°F 41.0°F 89% 30.05 in 9.0 miles SSW 5.8 mph - 0.01 in   Overcast
2:53 AM 45.0°F 42.1°F 90% 30.05 in 10.0 miles SSW 9.2 mph - N/A   Overcast
3:53 AM 45.0°F 42.1°F 90% 30.04 in 10.0 miles South 13.8 mph - N/A   Overcast
4:53 AM 45.0°F 42.1°F 90% 30.04 in 10.0 miles SSW 10.4 mph 18.4 mph N/A   Overcast
5:53 AM 46.0°F 42.1°F 86% 30.05 in 10.0 miles SSW 11.5 mph - N/A   Overcast
6:53 AM 46.0°F 42.1°F 86% 30.05 in 10.0 miles SSW 12.7 mph - 0.01 in   Overcast
7:53 AM 46.0°F 42.1°F 86% 30.05 in 10.0 miles Variable 3.5 mph - N/A   Overcast
8:53 AM 46.0°F 42.1°F 86% 30.06 in 10.0 miles Calm Calm - N/A   Overcast
9:53 AM 46.9°F 43.0°F 86% 30.06 in 10.0 miles Calm Calm - N/A   Overcast
9:55 AM 46.4°F 42.8°F 87% 30.05 in 10.0 miles Calm Calm - N/A   Overcast
10:22 AM 46.4°F 42.8°F 87% 30.05 in 10.0 miles Calm Calm - N/A   Overcast
10:53 AM 46.9°F 43.0°F 86% 30.06 in 10.0 miles Calm Calm - N/A   Overcast
11:53 AM 48.0°F 43.0°F 83% 30.04 in 10.0 miles Calm Calm - N/A   Overcast
12:19 PM 48.2°F 42.8°F 82% 30.01 in 10.0 miles SSE 3.5 mph - N/A   Overcast
12:39 PM 48.2°F 42.8°F 82% 30.00 in 10.0 miles SSE 3.5 mph - N/A   Scattered Clouds
12:53 PM 48.9°F 43.0°F 80% 30.01 in 10.0 miles South 3.5 mph - N/A   Scattered Clouds
1:49 PM 50.0°F 42.8°F 76% 29.99 in 10.0 miles West 4.6 mph - N/A   Overcast
1:53 PM 51.1°F 42.1°F 71% 29.99 in 10.0 miles West 3.5 mph - N/A   Overcast
2:53 PM 51.1°F 42.1°F 71% 29.97 in 10.0 miles Calm Calm - N/A   Scattered Clouds
3:53 PM 50.0°F 41.0°F 71% 29.97 in 10.0 miles Variable 3.5 mph - N/A   Scattered Clouds
4:53 PM 48.9°F 39.9°F 71% 29.97 in 10.0 miles Calm Calm - N/A   Scattered Clouds
4:54 PM 48.9°F 39.9°F 71% 29.97 in 10.0 miles Calm Calm - N/A   Scattered Clouds
5:53 PM 46.9°F 39.9°F 77% 29.97 in 10.0 miles Calm Calm - N/A   Overcast
6:53 PM 46.0°F 39.0°F 76% 29.96 in 10.0 miles SW 5.8 mph - N/A   Mostly Cloudy
7:53 PM 45.0°F 37.0°F 74% 29.96 in 10.0 miles SW 5.8 mph - N/A   Mostly Cloudy
8:11 PM 44.6°F 37.4°F 76% 29.95 in 10.0 miles SW 4.6 mph - N/A   Mostly Cloudy
8:53 PM 44.1°F 37.0°F 76% 29.95 in 10.0 miles WSW 3.5 mph - N/A   Mostly Cloudy
9:53 PM 43.0°F 36.0°F 76% 29.95 in 10.0 miles SSW 5.8 mph - N/A   Scattered Clouds
10:45 PM 39.2°F 37.4°F 93% 29.93 in 10.0 miles South 4.6 mph - N/A   Mostly Cloudy
10:53 PM 39.9°F 37.0°F 89% 29.94 in 10.0 miles South 3.5 mph - N/A   Mostly Cloudy
11:21 PM 42.8°F 39.2°F 87% 29.94 in 10.0 miles South 3.5 mph - N/A   Overcast
11:53 PM 39.9°F 37.9°F 93% 29.93 in 10.0 miles SSE 3.5 mph - N/A   Scattered Clouds
Moon Phase
Jan. 25 Jan. 26 Feb. 03 Feb. 10 Feb. 17
Sunrise:07:43 AM (PST) Moon Rise:04:05 PM (PST)1/25
Sunset:05:02 PM (PST) Moon Set:06:27 AM (PST)1/25

Copyright © 2014 The Weather Underground, Inc.